Regional Weather Roundup
Issued by NWS Little Rock, AR

Home | Current Version | Previous Version | Graphics & Text | Print | Product List | Glossary On
Versions: 1 2 3 4 5 6 7 8 9 10 11 12 13 14 15 16 17 18 19 20 21 22 23 24 25 26 27 28 29 30 31 32 33 34 35 36 37 38 39 40 41 42 43 44 45 46 47 48 49 50
000
ASUS44 KLZK 020205
RWRLZK

WEATHER ROUNDUP FOR ARKANSAS
NATIONAL WEATHER SERVICE LITTLE ROCK AR
900 PM CDT WED OCT 01 2014

NOTE: "FAIR" INDICATES FEW OR NO CLOUDS BELOW 12,000 FEET WITH NO
SIGNIFICANT WEATHER AND/OR OBSTRUCTIONS TO VISIBILITY.

ARZ001-003-010-029-020300-
NORTHWEST ARKANSAS

CITY           SKY/WX    TMP DP  RH WIND       PRES   REMARKS
FAYETTEVILLE   CLEAR     74  68  81 S8        29.82R
FORT SMITH     CLEAR     78  68  71 CALM      29.80R
HARRISON       CLEAR     74  67  78 SE6       29.85R
BENTONVILLE    CLEAR     75  66  73 S6        29.83R
ROGERS         CLEAR     75  67  76 SE8       29.83R
SILOAM SPGS    CLEAR     75  64  69 S8        29.83R
HIGHFILL       CLEAR     73  67  81 S9        29.82R
SPRINGDALE     PTCLDY    77  68  73 S13       29.84R
$$

ARZ004-005-016-020300-
NORTH CENTRAL ARKANSAS

CITY           SKY/WX    TMP DP  RH WIND       PRES   REMARKS
BATESVILLE     CLEAR     75  70  83 SE6       29.87R
FLIPPIN        CLEAR     79  64  61 SE5       29.84R
MTN HOME       CLEAR     77  68  73 S6        29.84R
$$

ARZ040-041-020300-
WEST CENTRAL ARKANSAS

CITY           SKY/WX    TMP DP  RH WIND       PRES   REMARKS
MENA           CLEAR     73  70  88 CALM      29.86R
MOUNT IDA      CLEAR     78  69  73 SE6       29.82S
$$

ARZ009-017-025-026-028-020300-
NORTHEAST ARKANSAS

CITY           SKY/WX    TMP DP  RH WIND       PRES   REMARKS
CORNING          N/A     73  68  83 SE8       29.88R
JONESBORO      CLEAR     73  68  84 E5        29.88R
NEWPORT        CLEAR     73  70  91 SE8       29.88R
WALNUT RIDGE   CLEAR     72  66  83 SE5       29.87R
BLYTHEVILLE    MOCLDY    74  68  81 SE7       29.90R
$$

ARZ022-023-033-042-044-020300-
CENTRAL ARKANSAS

CITY           SKY/WX    TMP DP  RH WIND       PRES   REMARKS
LITTLE ROCK    CLEAR     77  69  76 SE5       29.85R
N LITTLE ROCK  CLEAR     78  73  86 SE7       29.85R
JACKSONVILLE   CLEAR     77  72  84 E2        29.86R
SEARCY         PTCLDY    75  71  87 SE5       29.88R
HOT SPRINGS    CLEAR     77  69  76 E3        29.85R
RUSSELLVILLE   CLEAR     76  69  79 CALM      29.83R
CLINTON        FAIR      79  72  78 SE3       29.86R
$$

ARZ036-020300-
EAST ARKANSAS

CITY           SKY/WX    TMP DP  RH WIND       PRES   REMARKS
WEST MEMPHIS   CLEAR     73  68  84 SE8       29.89R
$$

ARZ050-053-066-070-073-020300-
SOUTHWEST ARKANSAS

CITY           SKY/WX    TMP DP  RH WIND       PRES   REMARKS
ARKADELPHIA    FAIR      75  74  97 CALM      29.85R
CAMDEN         CLEAR     77  68  73 CALM      29.85R
TEXARKANA      CLEAR     79  71  76 S9        29.83R
EL DORADO      CLEAR     78  71  79 SE5       29.86R
DE QUEEN       CLEAR     78  71  79 SE5       29.80R
$$

ARZ056-057-069-020300-
SOUTHEAST ARKANSAS

CITY           SKY/WX    TMP DP  RH WIND       PRES   REMARKS
PINE BLUFF     CLEAR     73  68  84 S5        29.86R
STUTTGART      CLEAR    N/A N/A N/A SE7       29.87R
MONTICELLO     CLEAR     77  69  76 CALM      29.88R

$$





USA.gov is the U.S. government's official web portal to all federal, state and local government web resources and services.